Observations for Trim Patrick St
| Time | AQI | Temp °C | Hum % | Pres Pa | CO μg/m³ | H₂S μg/m³ | NO μg/m³ | NO₂ μg/m³ | O₃ μg/m³ | SO₂ μg/m³ | PM1 μg/m³ | PM2.5 μg/m³ | PM10 μg/m³ |
|---|---|---|---|---|---|---|---|---|---|---|---|---|---|
| Tuesday 4 August 2026 | |||||||||||||
| 01:28 | 2 | 16.7 | 84 | 38,460 | 0.1 | 0.56 | 1.16 | 27.29 | 26.17 | 0 | 8 | 11.88 | 13.06 |
| 01:27 | 2 | 16.7 | 84 | 38,460 | 0.09 | 0 | 1.34 | 28.27 | 31.14 | 0 | 6.29 | 10.49 | 11.54 |
| 01:26 | 2 | 16.7 | 84 | 38,460 | 0.09 | 0 | 1.3 | 21.63 | 17.59 | 0 | 6.29 | 11.18 | 12.3 |
| 01:25 | 2 | 16.7 | 84 | 38,460 | 0.11 | 0 | 1.25 | 26.28 | 22.54 | 0 | 8 | 11.89 | 13.08 |
| 01:24 | 2 | 16.7 | 84 | 38,460 | 0.1 | 0 | 1.22 | 22.71 | 16.29 | 0 | 8 | 11.88 | 13.07 |
| 01:23 | 2 | 16.7 | 84 | 38,460 | 0.1 | 0 | 1.27 | 22.23 | 18.55 | 0 | 9.71 | 11.89 | 13.08 |
| 01:22 | 2 | 16.8 | 84 | 38,460 | 0.11 | 0 | 0.89 | 25.99 | 27.04 | 0 | 8.86 | 12.58 | 13.83 |
| 01:21 | 2 | 16.8 | 84 | 38,460 | 0.11 | 0 | 0.82 | 23.56 | 12.39 | 0 | 7.14 | 11.88 | 13.07 |
| 01:20 | 2 | 16.8 | 84 | 38,460 | 0.11 | 0 | 0.88 | 23.53 | 21.6 | 0 | 8 | 12.59 | 13.84 |
| 01:19 | 2 | 16.8 | 84 | 38,460 | 0.11 | 0 | 0.81 | 25.78 | 25.25 | 0 | 7.14 | 11.18 | 12.3 |
| 01:18 | 2 | 16.9 | 84 | 38,460 | 0.12 | 0 | 0.87 | 22.44 | 17.43 | 0 | 8.86 | 11.88 | 13.06 |
| 01:17 | 2 | 16.9 | 84 | 38,460 | 0.12 | 0 | 0.97 | 23.2 | 5.04 | 0 | 8 | 11.87 | 13.05 |
| 01:16 | 2 | 16.9 | 84 | 38,460 | 0.12 | 0.76 | 0.96 | 24.74 | 23.8 | 0 | 8.86 | 12.56 | 13.81 |
| 01:15 | 2 | 16.9 | 84 | 38,460 | 0.13 | 0 | 0.98 | 25.73 | 6.54 | 0 | 9.71 | 13.94 | 15.34 |
| 01:14 | 2 | 16.9 | 84 | 38,460 | 0.13 | 0 | 1.26 | 22 | 8.39 | 0 | 8 | 12.56 | 13.81 |
| 01:13 | 2 | 16.9 | 84 | 38,460 | 0.12 | 0 | 0.96 | 25 | 9.84 | 0 | 9.71 | 13.25 | 14.58 |
| 01:12 | 2 | 16.9 | 84 | 38,460 | 0.13 | 0 | 0.96 | 24.24 | 7.76 | 0 | 8.86 | 12.55 | 13.81 |
| 01:10 | 2 | 16.9 | 84 | 38,460 | 0.14 | 0.84 | 1.15 | 26.21 | 19.72 | 0 | 8 | 12.56 | 13.81 |
| 01:09 | 2 | 16.9 | 84 | 38,460 | 0.14 | 2.2 | 1.03 | 29.2 | 15.84 | 0 | 8.86 | 13.23 | 14.56 |
| 01:08 | 2 | 17 | 84 | 38,460 | 0.15 | 1.15 | 1.11 | 26.47 | 10.34 | 0 | 9.71 | 11.84 | 13.03 |